SCP
0 0 0 0 0 0 0 0 0 0 0 1 0 0 0 0 0 0 0 0 0 0 0 0 0 0 0 0 0 0 0 0 0 0 0 0 0 0 0 0 0 0 0 -0
0 0 0 0 0 0 0 0 0 0 0 0 0 0 0 0 0 0 0 0 0 0 0 0 0 0 0 0 0 0 0 0 0 0 0 0 0 0 0 0 0 0 0 0
0 0 0 0 0 0 0 0 0 0 0 0 0 0 0 0 0 0 0 0 0 0 0 0 0 0 0 0 0 0 0 0 0 0 0 0 0 0 0 0 0 0 0 0
0 0 0 0 0 0 0 0 0 0 0 0 0 0 0 0 0 0 0 0 0 0 0 0 0 0 0 0 0 0 0 0 0 0 0 0 0 0 0 0 0 0 0 0
0 0 0 0 0 0 0 0 0 0 0 0 0 0 0 -0 0 0 0 0 0 0 0 0 0 0 0 0 0 0 0 0 0 0 0 0 0 0 0 0 0 0 0 0
0 0 0 0 0 0 0 0 0 0 0 0 0 0 0 0 0 0 0 0 0 0 0 0 0 0 0 0 0 0 0 0 0 0 0 0 0 0 0 0 0 0 0 0
0 0 0 0 0 0 0 0 0 0 0 0 0 0 0 0 0 0 0 0 0 0 0 0 0 0 0 0 0 0 0 0 0 0 0 0 0 0 0 0 0 0 0 0
0 0 0 -0 0 0 0 0 0 0 0 0 0 0 0 0 0 0 0 0 0 0 0 0 0 0 0 0 0 0 0 0 0 0 0 0 0 0 0 0 0 0 0 0
0 0 0 0 0 0 0 0 0 0 0 0 0 0 0 0 0 0 0 0 0 0 -0 0 0 0 0 0 0 0 0 0 0 0 0 0 0 0 0 0 0 0 0 0
0 0 0 0 -0 -0 0 0 0 0 0 0 0 0 0 0 0 0 0 0 0 0 0 0 0 0 0 0 0 0 0 0 0 0 0 0 0 0 0 0 0 0 0 0
0 0 0 0 0 0 0 0 0 0 0 0 0 0 0 0 0 0 0 0 0 0 0 0 0 0 0 0 0 0 0 0 0 0 0 0 0 0 0 0 0 0 0 0
0 0 0 0 0 -0 -0 0 0 0 0 0 0 0 0 0 0 0 0 0 0 0 0 0 0 0 0 0 0 0 0 0 0 0 0 0 0 0 0 0 0 0 0 0
0 0 0 0 0 0 0 0 0 0 0 0 0 0 0 0 0 0 0 0 0 0 0 0 0 0 0 0 0 0 0 0 0 0 0 0 0 0 0 0 0 0 0 0
0 0 0 0 0 0 0 0 0 0 0 0 0 0 0 0 0 0 0 0 0 0 0 0 0 0 0 0 0 0 0 0 0 0 0 0 0 0 0 0 0 0 0 0
0 0 0 0 0 0 0 0 0 0 0 0 0 0 0 0 0 0 0 0 0 0 0 0 0 0 0 0 0 0 0 0 0 0 0 0 0 0 0 0 0 0 0 0
0 0 0 0 0 0 0 0 0 0 0 0 0 0 0 0 0 0 0 0 0 0 0 0 0 0 0 0 0 0 0 0 0 0 0 0 0 0 0 0 0 0 0 0
0 0 0 0 0 0 0 0 0 -0 0 0 0 0 0 0 0 0 0 0 0 0 0 0 0 0 0 0 0 0 0 0 0 0 0 0 0 0 0 0 0 0 0 0
0 0 0 0 0 0 0 0 -0 0 0 0 0 0 0 0 0 0 0 0 0 0 0 0 0 0 0 0 0 0 0 0 0 0 0 0 0 0 0 0 0 0 0 0
0 0 0 0 0 0 0 0 -0 0 0 0 0 0 0 0 0 0 0 0 0 0 0 0 0 0 0 0 0 0 0 0 0 0 0 0 0 0 0 0 0 0 0 0
0 0 0 0 0 0 0 0 0 0 0 0 0 0 0 0 0 0 0 0 0 0 0 0 0 0 0 0 0 0 0 0 0 0 0 0 0 0 0 0 0 0 0 0
0 0 0 0 0 0 0 0 0 0 0 -0 0 0 0 0 0 0 0 0 0 0 0 0 0 0 0 0 0 0 0 0 0 0 0 0 0 0 0 0 0 0 0 0
0 0 0 0 -0 0 0 0 0 0 0 0 0 0 0 0 0 0 0 0 0 0 0 0 0 0 0 0 0 0 0 0 0 0 0 0 0 0 0 0 0 0 0 0
0 0 0 0 0 0 0 0 0 0 0 0 0 0 0 0 0 0 0 0 0 0 0 0 0 0 0 0 0 0 0 0 0 0 0 0 0 0 0 0 0 0 0 0
0 0 0 0 0 -0 0 0 0 -0 0 0 0 0 0 0 0 0 0 0 0 0 0 0 0 0 0 0 0 0 0 0 0 0 0 0 0 0 0 0 0 0 0 0
0 0 0 0 0 0 0 0 0 0 0 0 0 0 0 0 0 0 0 0 0 0 0 0 0 0 0 0 0 0 0 0 0 0 0 0 0 0 0 0 0 0 0 0
0 0 0 0 0 0 0 0 0 0 0 0 0 0 0 0 0 0 0 0 0 0 0 0 0 0 0 0 0 0 0 0 0 0 0 0 0 0 0 0 0 0 0 0
0 0 0 0 0 0 0 0 0 0 0 0 0 0 0 0 0 0 0 0 0 0 0 0 0 0 0 0 0 0 0 0 0 0 0 0 0 0 0 0 0 0 0 0
Wind_Speed_500mb
52 47 42 33 37 28 28 22 9 20 35 34 11 23 19 21 17 43 16 19 25 28 19 22 26 30 19 38 39 35 25 7 9 17 7 10 3 14 14 12 14 9 4 43
48 48 43 40 31 32 26 17 32 26 38 20 30 13 20 31 21 30 15 26 24 34 26 13 30 19 25 34 35 26 21 10 4 10 7 5 13 16 34 2 7 25 10 34
34 42 45 45 43 41 40 18 7 26 47 55 29 33 38 40 42 33 43 29 33 21 15 31 21 21 18 49 44 44 41 11 29 40 15 15 17 23 28 36 18 18 48 51
55 31 45 45 42 49 49 28 14 17 10 23 33 37 12 41 27 30 53 33 38 40 39 37 50 49 3 6 36 34 28 24 19 38 9 12 14 26 40 46 61 29 58 49
45 52 53 47 47 49 51 13 15 19 30 20 14 29 39 40 37 17 22 42 48 46 45 46 46 44 31 18 9 27 13 23 24 37 31 19 14 24 48 51 51 51 59 65
46 45 54 43 48 43 35 46 39 17 15 13 14 12 15 11 13 19 40 27 37 47 62 73 68 46 24 6 14 22 24 22 15 38 22 15 16 71 41 37 41 44 51 75
49 49 51 52 51 52 65 53 27 23 21 16 12 10 16 19 15 17 10 10 9 15 35 42 63 40 28 28 20 24 8 28 12 24 14 24 29 12 52 57 58 46 49 57
47 49 50 67 47 46 61 76 57 16 14 24 22 29 25 29 34 29 35 35 24 27 21 8 7 11 12 37 38 32 35 25 11 13 25 18 33 11 18 28 57 54 58 59
48 50 50 53 54 50 36 63 73 41 4 24 46 19 31 24 18 5 8 16 25 16 5 4 9 12 6 17 10 4 34 41 30 11 16 26 13 1 4 11 42 30 46 52
46 48 49 49 54 67 31 34 50 49 25 29 36 18 24 19 23 7 7 15 13 32 9 7 7 6 3 10 14 10 20 22 38 35 23 10 9 9 6 18 14 7 5 30
42 43 48 45 45 55 50 38 47 65 17 30 50 47 28 14 15 15 14 11 4 4 10 10 7 8 10 7 7 9 18 17 12 17 13 21 14 3 17 5 7 11 8 10
40 43 44 50 47 47 47 52 33 37 40 12 46 46 49 52 38 20 33 5 10 18 8 8 5 7 5 9 8 2 8 9 10 14 9 9 33 11 16 5 2 2 2 6
38 43 46 49 48 44 49 56 38 41 39 27 31 37 45 50 54 43 15 14 15 10 12 5 5 7 6 12 10 4 6 4 4 4 5 4 12 13 17 15 12 8 5 4
40 39 44 48 48 47 46 53 53 43 15 7 12 42 42 40 43 45 40 20 23 20 17 5 4 6 7 4 5 6 5 14 12 7 6 7 22 29 25 18 7 7 9 12
40 38 44 44 46 45 46 52 59 51 38 6 7 24 31 35 44 41 38 35 30 16 7 5 6 5 4 3 4 3 10 12 10 9 18 8 8 44 35 34 22 14 11 12
40 41 44 44 46 42 41 22 59 72 61 8 6 14 26 32 35 37 32 27 23 11 9 4 5 7 6 6 6 8 30 17 15 8 26 24 10 12 44 40 30 15 10 3
41 45 47 50 51 46 51 17 14 17 54 14 3 6 16 33 32 23 24 20 9 8 7 4 6 5 7 2 5 4 18 18 14 9 19 18 13 1 21 34 26 15 8 8
37 33 33 33 40 46 56 71 66 18 50 20 7 4 13 40 15 10 20 12 8 4 7 6 4 3 1 4 5 14 9 14 9 13 16 3 10 10 9 21 19 16 14 15
26 25 20 27 31 41 67 56 49 52 41 7 7 18 12 30 11 13 13 14 3 5 4 5 10 2 6 1 10 16 19 11 7 17 16 16 16 19 17 15 15 12 14 21
23 22 13 9 18 39 30 26 17 26 28 21 3 14 10 27 12 3 6 7 6 5 7 14 5 5 17 13 13 10 8 10 11 19 16 18 19 18 18 16 15 15 14 14
19 18 13 18 16 30 21 17 14 11 9 22 15 8 17 20 8 7 8 6 3 6 8 10 2 5 6 6 4 5 5 6 10 16 16 13 13 15 17 14 10 9 9 11
20 11 11 14 13 22 13 10 6 11 12 8 11 14 23 17 15 8 7 6 4 9 9 8 5 3 7 7 6 6 6 3 3 6 8 9 9 9 9 9 9 9 11 13
32 15 11 12 12 11 15 19 6 7 8 19 24 13 18 13 9 6 6 9 8 16 5 8 2 6 10 13 8 3 4 2 3 3 5 6 7 8 9 10 10 11 12 13
23 13 10 10 8 10 5 6 8 5 14 22 49 9 7 10 6 6 9 6 8 5 8 10 2 7 12 12 12 6 9 9 9 9 7 7 7 7 6 5 5 5 6 7
9 9 11 9 4 4 5 9 5 6 41 61 23 13 8 5 8 4 8 5 8 8 8 2 5 6 7 9 13 15 16 16 16 17 17 17 17 15 15 14 12 9 7 6
10 13 2 14 3 5 10 19 8 14 33 40 15 6 6 6 10 7 4 12 8 5 3 10 9 12 14 15 19 24 26 27 28 27 27 26 24 22 23 23 21 19 17 14
10 7 17 13 9 9 11 16 17 17 8 4 6 7 5 7 8 7 9 6 4 18 21 17 16 17 19 20 25 28 30 32 34 33 32 30 30 26 23 22 26 23 21 18
Wind_Direction_500mb
253 254 268 280 242 249 247 242 237 230 191 201 231 218 211 199 189 225 251 216 224 225 195 186 207 211 208 194 165 194 201 131 165 203 270 258 216 180 164 176 217 235 202 262
254 249 251 259 253 237 241 237 241 238 212 222 225 225 221 226 206 215 198 232 219 225 234 218 229 211 203 191 171 172 172 206 101 317 347 325 205 214 214 246 61 228 196 263
269 242 247 253 260 234 232 212 250 214 221 243 227 236 235 226 213 229 221 240 249 243 241 232 243 228 208 208 193 191 168 171 205 231 231 152 197 197 205 205 229 218 235 257
272 283 247 247 259 215 233 211 232 231 202 229 233 247 243 225 234 214 206 236 237 235 232 232 241 238 221 258 197 183 169 212 200 237 192 159 179 199 204 207 225 210 252 241
268 267 265 249 233 222 248 233 203 217 254 272 228 236 248 247 256 221 213 224 224 230 244 223 235 232 215 198 193 196 181 228 209 243 235 219 214 212 216 219 232 236 250 260
260 261 263 262 238 225 239 246 230 221 241 239 238 238 242 244 173 227 232 238 239 236 229 235 244 241 246 140 167 192 172 197 176 241 207 226 263 238 220 224 229 225 235 244
257 259 256 258 240 233 238 237 251 217 234 224 225 245 213 251 219 225 182 108 273 289 305 272 250 252 240 230 176 192 169 201 199 246 136 216 246 211 220 228 238 226 245 255
254 254 253 258 259 243 241 239 241 220 234 225 240 230 253 269 272 257 234 239 234 254 313 268 200 206 205 224 222 192 198 196 217 231 225 261 277 183 165 189 244 231 236 248
256 256 252 254 261 239 290 236 239 249 239 224 227 226 234 246 244 265 219 205 211 172 123 215 237 220 166 192 190 310 204 214 210 187 232 237 280 272 205 116 252 172 213 237
254 255 250 251 260 269 260 242 243 232 239 234 206 206 222 209 199 232 134 172 188 185 166 188 236 249 212 186 180 164 199 212 220 224 234 253 228 232 151 162 250 313 245 244
253 256 251 247 249 261 259 254 242 231 246 210 204 208 199 189 202 209 155 122 192 145 205 181 178 232 216 168 159 180 186 183 198 219 239 242 183 81 172 229 338 316 284 238
251 254 254 250 245 252 260 265 262 245 230 228 209 221 222 227 232 229 186 182 164 177 190 200 144 189 175 167 205 242 206 192 178 191 207 184 181 179 197 205 250 210 280 224
253 253 252 253 250 246 246 258 259 248 237 233 210 211 222 226 227 232 196 218 197 207 208 175 189 217 163 177 206 137 224 199 164 125 207 224 217 224 190 161 129 101 46 233
249 254 251 250 251 246 246 242 252 244 235 238 199 218 217 225 219 221 228 224 202 216 212 205 188 230 218 221 140 164 176 141 174 273 244 304 252 220 196 174 174 222 212 206
250 254 255 250 250 253 248 249 245 250 218 241 167 191 205 206 206 213 216 226 228 187 180 199 196 152 136 359 30 223 196 173 180 214 180 149 199 212 207 212 198 192 180 148
249 255 254 252 245 245 244 252 250 243 243 256 199 182 183 184 189 202 208 211 198 195 178 166 174 165 179 167 198 242 201 200 198 188 181 198 211 233 210 215 216 208 188 166
253 258 255 241 234 235 224 223 168 216 218 209 200 157 164 170 160 166 168 172 163 169 167 158 154 190 192 137 192 301 204 189 181 219 189 205 218 37 212 221 223 200 175 163
251 250 247 242 234 231 235 235 234 251 197 195 190 121 143 165 155 143 168 152 151 142 139 135 149 135 101 218 269 53 88 160 152 162 193 246 201 194 188 206 215 224 234 211
240 241 242 248 226 223 230 236 242 248 225 235 141 157 168 166 135 127 156 157 106 153 149 218 144 237 213 268 28 58 42 66 106 122 132 130 132 110 113 125 132 133 166 183
232 240 218 222 234 253 225 223 221 215 206 207 216 147 144 156 135 161 108 136 152 149 233 142 115 224 100 68 80 86 76 65 120 165 138 116 108 112 123 123 130 139 151 169
243 194 217 235 293 184 190 217 189 178 205 171 153 170 132 171 127 151 165 165 161 120 241 139 279 280 98 29 45 52 72 90 101 130 145 148 152 135 146 154 162 181 203 213
210 218 239 262 215 228 187 184 215 186 208 137 133 160 126 137 149 109 162 121 96 191 156 101 243 117 31 7 354 351 10 52 131 163 175 176 183 187 187 195 207 221 233 240
254 237 196 217 219 252 162 175 213 169 186 155 153 150 139 124 110 98 138 143 192 128 80 206 180 75 5 6 12 73 41 85 163 193 212 215 218 223 226 236 245 247 244 246
196 148 196 229 200 235 200 176 143 209 147 137 153 118 124 130 126 141 139 140 115 93 153 223 109 15 359 15 26 55 73 90 102 112 121 143 157 163 165 183 196 229 242 234
166 149 198 215 256 304 207 120 70 152 161 143 130 83 121 108 115 105 120 107 156 171 203 108 78 38 36 54 68 79 88 93 101 101 101 102 103 106 107 103 99 98 102 119
87 53 35 342 19 302 31 45 44 64 152 135 109 129 118 120 134 135 81 126 185 136 105 102 104 75 72 76 86 90 93 99 100 100 98 95 94 92 92 96 97 95 91 95
68 68 54 11 314 2 21 35 358 345 185 152 102 101 74 90 83 65 10 68 77 113 102 101 101 92 85 88 96 99 101 101 100 101 104 103 98 96 103 102 94 93 92 87
Wind_Speed_850mb
52 47 42 33 37 28 28 22 9 20 35 34 11 23 19 21 17 43 16 19 25 28 19 22 26 30 19 38 39 35 25 7 9 17 7 10 3 14 14 12 14 9 4 43
48 48 43 40 31 32 26 17 32 26 38 20 30 13 20 31 21 30 15 26 24 34 26 13 30 19 25 34 35 26 21 10 4 10 7 5 13 16 34 2 7 25 10 34
34 42 45 45 43 41 40 18 7 26 47 55 29 33 38 40 42 33 43 29 33 21 15 31 21 21 18 49 44 44 41 11 29 40 15 15 17 23 28 36 18 18 48 51
55 31 45 45 42 49 49 28 14 17 10 23 33 37 12 41 27 30 53 33 38 40 39 37 50 49 3 6 36 34 28 24 19 38 9 12 14 26 40 46 61 29 58 49
45 52 53 47 47 49 51 13 15 19 30 20 14 29 39 40 37 17 22 42 48 46 45 46 46 44 31 18 9 27 13 23 24 37 31 19 14 24 48 51 51 51 59 65
46 45 54 43 48 43 35 46 39 17 15 13 14 12 15 11 13 19 40 27 37 47 62 73 68 46 24 6 14 22 24 22 15 38 22 15 16 71 41 37 41 44 51 75
49 49 51 52 51 52 65 53 27 23 21 16 12 10 16 19 15 17 10 10 9 15 35 42 63 40 28 28 20 24 8 28 12 24 14 24 29 12 52 57 58 46 49 57
47 49 50 67 47 46 61 76 57 16 14 24 22 29 25 29 34 29 35 35 24 27 21 8 7 11 12 37 38 32 35 25 11 13 25 18 33 11 18 28 57 54 58 59
48 50 50 53 54 50 36 63 73 41 4 24 46 19 31 24 18 5 8 16 25 16 5 4 9 12 6 17 10 4 34 41 30 11 16 26 13 1 4 11 42 30 46 52
46 48 49 49 54 67 31 34 50 49 25 29 36 18 24 19 23 7 7 15 13 32 9 7 7 6 3 10 14 10 20 22 38 35 23 10 9 9 6 18 14 7 5 30
42 43 48 45 45 55 50 38 47 65 17 30 50 47 28 14 15 15 14 11 4 4 10 10 7 8 10 7 7 9 18 17 12 17 13 21 14 3 17 5 7 11 8 10
40 43 44 50 47 47 47 52 33 37 40 12 46 46 49 52 38 20 33 5 10 18 8 8 5 7 5 9 8 2 8 9 10 14 9 9 33 11 16 5 2 2 2 6
38 43 46 49 48 44 49 56 38 41 39 27 31 37 45 50 54 43 15 14 15 10 12 5 5 7 6 12 10 4 6 4 4 4 5 4 12 13 17 15 12 8 5 4
40 39 44 48 48 47 46 53 53 43 15 7 12 42 42 40 43 45 40 20 23 20 17 5 4 6 7 4 5 6 5 14 12 7 6 7 22 29 25 18 7 7 9 12
40 38 44 44 46 45 46 52 59 51 38 6 7 24 31 35 44 41 38 35 30 16 7 5 6 5 4 3 4 3 10 12 10 9 18 8 8 44 35 34 22 14 11 12
40 41 44 44 46 42 41 22 59 72 61 8 6 14 26 32 35 37 32 27 23 11 9 4 5 7 6 6 6 8 30 17 15 8 26 24 10 12 44 40 30 15 10 3
41 45 47 50 51 46 51 17 14 17 54 14 3 6 16 33 32 23 24 20 9 8 7 4 6 5 7 2 5 4 18 18 14 9 19 18 13 1 21 34 26 15 8 8
37 33 33 33 40 46 56 71 66 18 50 20 7 4 13 40 15 10 20 12 8 4 7 6 4 3 1 4 5 14 9 14 9 13 16 3 10 10 9 21 19 16 14 15
26 25 20 27 31 41 67 56 49 52 41 7 7 18 12 30 11 13 13 14 3 5 4 5 10 2 6 1 10 16 19 11 7 17 16 16 16 19 17 15 15 12 14 21
23 22 13 9 18 39 30 26 17 26 28 21 3 14 10 27 12 3 6 7 6 5 7 14 5 5 17 13 13 10 8 10 11 19 16 18 19 18 18 16 15 15 14 14
19 18 13 18 16 30 21 17 14 11 9 22 15 8 17 20 8 7 8 6 3 6 8 10 2 5 6 6 4 5 5 6 10 16 16 13 13 15 17 14 10 9 9 11
20 11 11 14 13 22 13 10 6 11 12 8 11 14 23 17 15 8 7 6 4 9 9 8 5 3 7 7 6 6 6 3 3 6 8 9 9 9 9 9 9 9 11 13
32 15 11 12 12 11 15 19 6 7 8 19 24 13 18 13 9 6 6 9 8 16 5 8 2 6 10 13 8 3 4 2 3 3 5 6 7 8 9 10 10 11 12 13
23 13 10 10 8 10 5 6 8 5 14 22 49 9 7 10 6 6 9 6 8 5 8 10 2 7 12 12 12 6 9 9 9 9 7 7 7 7 6 5 5 5 6 7
9 9 11 9 4 4 5 9 5 6 41 61 23 13 8 5 8 4 8 5 8 8 8 2 5 6 7 9 13 15 16 16 16 17 17 17 17 15 15 14 12 9 7 6
10 13 2 14 3 5 10 19 8 14 33 40 15 6 6 6 10 7 4 12 8 5 3 10 9 12 14 15 19 24 26 27 28 27 27 26 24 22 23 23 21 19 17 14
10 7 17 13 9 9 11 16 17 17 8 4 6 7 5 7 8 7 9 6 4 18 21 17 16 17 19 20 25 28 30 32 34 33 32 30 30 26 23 22 26 23 21 18
Wind_Direction_850mb
253 254 268 280 242 249 247 242 237 230 191 201 231 218 211 199 189 225 251 216 224 225 195 186 207 211 208 194 165 194 201 131 165 203 270 258 216 180 164 176 217 235 202 262
254 249 251 259 253 237 241 237 241 238 212 222 225 225 221 226 206 215 198 232 219 225 234 218 229 211 203 191 171 172 172 206 101 317 347 325 205 214 214 246 61 228 196 263
269 242 247 253 260 234 232 212 250 214 221 243 227 236 235 226 213 229 221 240 249 243 241 232 243 228 208 208 193 191 168 171 205 231 231 152 197 197 205 205 229 218 235 257
272 283 247 247 259 215 233 211 232 231 202 229 233 247 243 225 234 214 206 236 237 235 232 232 241 238 221 258 197 183 169 212 200 237 192 159 179 199 204 207 225 210 252 241
268 267 265 249 233 222 248 233 203 217 254 272 228 236 248 247 256 221 213 224 224 230 244 223 235 232 215 198 193 196 181 228 209 243 235 219 214 212 216 219 232 236 250 260
260 261 263 262 238 225 239 246 230 221 241 239 238 238 242 244 173 227 232 238 239 236 229 235 244 241 246 140 167 192 172 197 176 241 207 226 263 238 220 224 229 225 235 244
257 259 256 258 240 233 238 237 251 217 234 224 225 245 213 251 219 225 182 108 273 289 305 272 250 252 240 230 176 192 169 201 199 246 136 216 246 211 220 228 238 226 245 255
254 254 253 258 259 243 241 239 241 220 234 225 240 230 253 269 272 257 234 239 234 254 313 268 200 206 205 224 222 192 198 196 217 231 225 261 277 183 165 189 244 231 236 248
256 256 252 254 261 239 290 236 239 249 239 224 227 226 234 246 244 265 219 205 211 172 123 215 237 220 166 192 190 310 204 214 210 187 232 237 280 272 205 116 252 172 213 237
254 255 250 251 260 269 260 242 243 232 239 234 206 206 222 209 199 232 134 172 188 185 166 188 236 249 212 186 180 164 199 212 220 224 234 253 228 232 151 162 250 313 245 244
253 256 251 247 249 261 259 254 242 231 246 210 204 208 199 189 202 209 155 122 192 145 205 181 178 232 216 168 159 180 186 183 198 219 239 242 183 81 172 229 338 316 284 238
251 254 254 250 245 252 260 265 262 245 230 228 209 221 222 227 232 229 186 182 164 177 190 200 144 189 175 167 205 242 206 192 178 191 207 184 181 179 197 205 250 210 280 224
253 253 252 253 250 246 246 258 259 248 237 233 210 211 222 226 227 232 196 218 197 207 208 175 189 217 163 177 206 137 224 199 164 125 207 224 217 224 190 161 129 101 46 233
249 254 251 250 251 246 246 242 252 244 235 238 199 218 217 225 219 221 228 224 202 216 212 205 188 230 218 221 140 164 176 141 174 273 244 304 252 220 196 174 174 222 212 206
250 254 255 250 250 253 248 249 245 250 218 241 167 191 205 206 206 213 216 226 228 187 180 199 196 152 136 359 30 223 196 173 180 214 180 149 199 212 207 212 198 192 180 148
249 255 254 252 245 245 244 252 250 243 243 256 199 182 183 184 189 202 208 211 198 195 178 166 174 165 179 167 198 242 201 200 198 188 181 198 211 233 210 215 216 208 188 166
253 258 255 241 234 235 224 223 168 216 218 209 200 157 164 170 160 166 168 172 163 169 167 158 154 190 192 137 192 301 204 189 181 219 189 205 218 37 212 221 223 200 175 163
251 250 247 242 234 231 235 235 234 251 197 195 190 121 143 165 155 143 168 152 151 142 139 135 149 135 101 218 269 53 88 160 152 162 193 246 201 194 188 206 215 224 234 211
240 241 242 248 226 223 230 236 242 248 225 235 141 157 168 166 135 127 156 157 106 153 149 218 144 237 213 268 28 58 42 66 106 122 132 130 132 110 113 125 132 133 166 183
232 240 218 222 234 253 225 223 221 215 206 207 216 147 144 156 135 161 108 136 152 149 233 142 115 224 100 68 80 86 76 65 120 165 138 116 108 112 123 123 130 139 151 169
243 194 217 235 293 184 190 217 189 178 205 171 153 170 132 171 127 151 165 165 161 120 241 139 279 280 98 29 45 52 72 90 101 130 145 148 152 135 146 154 162 181 203 213
210 218 239 262 215 228 187 184 215 186 208 137 133 160 126 137 149 109 162 121 96 191 156 101 243 117 31 7 354 351 10 52 131 163 175 176 183 187 187 195 207 221 233 240
254 237 196 217 219 252 162 175 213 169 186 155 153 150 139 124 110 98 138 143 192 128 80 206 180 75 5 6 12 73 41 85 163 193 212 215 218 223 226 236 245 247 244 246
196 148 196 229 200 235 200 176 143 209 147 137 153 118 124 130 126 141 139 140 115 93 153 223 109 15 359 15 26 55 73 90 102 112 121 143 157 163 165 183 196 229 242 234
166 149 198 215 256 304 207 120 70 152 161 143 130 83 121 108 115 105 120 107 156 171 203 108 78 38 36 54 68 79 88 93 101 101 101 102 103 106 107 103 99 98 102 119
87 53 35 342 19 302 31 45 44 64 152 135 109 129 118 120 134 135 81 126 185 136 105 102 104 75 72 76 86 90 93 99 100 100 98 95 94 92 92 96 97 95 91 95
68 68 54 11 314 2 21 35 358 345 185 152 102 101 74 90 83 65 10 68 77 113 102 101 101 92 85 88 96 99 101 101 100 101 104 103 98 96 103 102 94 93 92 87